Regional Weather Roundup
Issued by NWS

Home | Current Version | Previous Version | Text Only | Print | Product List | Glossary Off
Versions: 1 2 3 4 5 6 7 8 9 10 11 12 13 14 15 16 17 18 19 20 21 22 23 24 25 26 27 28 29 30 31 32 33 34 35 36 37 38 39 40 41 42 43 44 45 46 47 48 49 50

000
ASUS43 KLMK 160810
RWRKY
KENTUCKY REGIONAL WEATHER ROUNDUP
NATIONAL WEATHER SERVICE LOUISVILLE KY
400 AM EDT TUE SEP 16 2014

NOTE "FAIR" INDICATES FEW OR NO CLOUDS BELOW 12,000 FEET
WITH NO SIGNIFICANT WEATHER AND/OR OBSTRUCTIONS TO VISIBILITY.

KYZ001>023-026-027-061>063-070>075-160900-
WESTERN AND SOUTH CENTRAL KENTUCKY

CITY           SKY/WX    TMP DP  RH WIND       PRES   REMARKS
PADUCAH        CLOUDY    68  62  81 N9        30.11R
HENDERSON      CLOUDY    63  59  88 N7        30.12R
OWENSBORO      CLOUDY    66  64  93 NW10      30.10R
HOPKINSVILLE   CLOUDY    67  67 100 W5        30.10S
BOWLING GREEN  CLOUDY    68  62  81 SW6       30.09F
GLASGOW        CLOUDY    66  64  93 W3        30.09F
$$

KYZ024-025-028>034-038-045-046-053-160900-
NORTH CENTRAL KENTUCKY

CITY           SKY/WX    TMP DP  RH WIND       PRES   REMARKS
LOUISVILLE/SDF CLOUDY    65  60  84 N6        30.07S
LOUISVILLE/LOU CLOUDY    64  60  87 CALM      30.07S
FORT KNOX      LGT RAIN  64  63  94 W6        30.06F
$$

KYZ035>037-039>044-047>052-055>060-089>105-160900-
NORTHEAST KENTUCKY

CITY           SKY/WX    TMP DP  RH WIND       PRES   REMARKS
LEXINGTON      LGT RAIN  65  61  87 W3        30.08F
COVINGTON      CLOUDY    59  57  93 N5        30.10S FOG
FRANKFORT      CLOUDY    62  61  96 CALM      30.07F
$$

KYZ054-064>069-076>088-106>120-160900-
SOUTHEAST KENTUCKY

CITY           SKY/WX    TMP DP  RH WIND       PRES   REMARKS
JACKSON        LGT RAIN  63  60  90 VRB3      30.10S
LONDON         CLOUDY    66  62  87 CALM      30.10S
SOMERSET       NOT AVBL
MIDDLESBORO    CLOUDY    63  62  97 CALM      30.11S
MONTICELLO     FAIR      66  63  90 CALM      30.11F
$$




USA.gov is the U.S. government's official web portal to all federal, state and local government web resources and services.